sat.trackr.live / text

‹ back to catalog

STARLINK-6368

NORAD 57234 · 2023-094S

PAYLOAD ACTIVE UNKNOWN

§ Identity

Operator
Country
US
Launch date
2023-07-07
Launch site
AFWTR
Launch vehicle
Mass (kg)
RCS (m²)

Purposes: comms

External: N2YO · Heavens-Above · Gunter

§ Orbital elements

Epoch: 2026-05-24T23:01:08.203008Z

Period
94.27 min
Inclination
43.0027°
Eccentricity
0.0001444
Mean motion
15.27575044 rev/d
Perigee alt
482.1 km
Apogee alt
484.1 km
Semi-major
6,861.2 km
B*
-2.4787e-6
RAAN
319.6607°
Arg perigee
252.3264°
Mean anomaly
107.7430°
Rev number
15,878

§ Raw data

STARLINK-63681 57234U 23094S   26144.95912272 -.00000330  00000+0 -24787-5 0  99932 57234  43.0027 319.6607 0001444 252.3264 107.7430 15.27575044158789

JSON: /api/v1/satellites/57234 · /tle

For live sub-satellite position, see the globe view (requires WebGL).

§ Visibility from observer

Set your observer location to see the next 7 days of passes ≥ 10°. The values pass through the URL so the page stays shareable.

No JS? Fill the form by hand. The geolocation button needs JavaScript.